EW5562 Weather Reports


time (UTC)temp
C
wind
direction
speed
KPH
gust
KPH
rain 1hr
cm
rain 24hr
cm
rain mn
cm
humidity
%
barometer
mb
20260507154627 23 35 17.7 24.1 0.00 0.00 0.00 51 1012.2
20260507151627 24 41 16.1 24.1 0.00 0.00 0.00 50 1012.2
20260507144626 25 31 17.7 25.7 0.00 0.00 0.00 45 1012.6
20260507141627 26 37 20.9 25.7 0.00 0.00 0.00 41 1012.5
20260507134626 26 0 14.5 20.9 0.00 0.00 0.00 38 1012.4
20260507131626 27 23 9.7 19.3 0.00 0.00 0.00 39 1012.1
20260507124623 27 252 3.2 8.0 0.00 0.00 0.00 34 1012.5
20260507121624 26 49 4.8 9.7 0.00 0.00 0.00 38 1012.5
20260507114623 26 48 3.2 9.7 0.00 0.00 0.00 37 1012.9
20260507111622 26 234 1.6 6.4 0.00 0.00 0.00 37 1013.0
20260507110124 26 258 6.4 11.3 0.00 0.00 0.00 36 1013.2
20260507101623 25 0 3.2 11.3 0.00 0.00 0.00 42 1013.1
20260507094623 25 0 3.2 8.0 0.00 0.00 0.00 42 1013.2
20260507093138 23 20 3.2 9.7 0.00 0.00 0.00 43 1013.3
20260507084621 23 20 9.7 9.7 0.00 0.00 0.00 45 1013.3
20260507081621 21 0 3.2 8.0 0.00 0.00 0.00 51 1013.5
20260507074621 21 0 3.2 6.4 0.00 0.00 0.00 55 1013.2
20260507071620 19 0 3.2 8.0 0.00 0.00 0.00 59 1013.5
20260507070121 18 327 0.0 4.8 0.00 0.00 0.00 59 1013.7
20260507061618 17 341 3.2 6.4 0.00 0.00 0.00 62 1013.7
20260507054619 16 283 0.0 6.4 0.00 0.00 0.00 69 1013.7
20260507051619 14 254 3.2 4.8 0.00 0.00 0.00 74 1013.6
20260507044617 12 307 0.0 4.8 0.00 0.00 0.00 79 1013.3
20260507041617 11 296 3.2 6.4 0.00 0.00 0.00 80 1013.1
20260507034616 11 254 3.2 6.4 0.00 0.00 0.00 83 1013.0
20260507031616 11 264 1.6 9.7 0.00 0.00 0.00 81 1012.9
20260507030116 11 316 6.4 9.7 0.00 0.00 0.00 79 1012.6
20260507023116 11 314 4.8 8.0 0.00 0.00 0.00 80 1012.3
20260507014615 12 261 1.6 3.2 0.00 0.00 0.00 79 1012.2
20260507011615 12 195 0.0 6.4 0.00 0.00 0.00 77 1012.0
20260507004615 12 314 4.8 8.0 0.00 0.00 0.00 76 1012.0
20260507001613 12 317 3.2 6.4 0.00 0.00 0.00 77 1011.9
20260506234613 13 289 1.6 8.0 0.00 0.00 0.00 72 1012.1
20260506231612 14 336 3.2 6.4 0.00 0.00 0.00 70 1012.2
20260506224612 13 213 1.6 8.0 0.00 0.00 0.00 73 1012.3
20260506221611 15 59 6.4 8.0 0.00 0.00 0.00 66 1012.5
20260506214611 15 344 4.8 8.0 0.00 0.00 0.00 68 1012.6
20260506211611 15 79 0.0 4.8 0.00 0.00 0.00 67 1012.3
20260506204610 16 45 4.8 6.4 0.00 0.00 0.00 62 1012.4
20260506201610 16 76 1.6 9.7 0.00 0.00 0.00 59 1012.6
20260506194609 17 66 4.8 6.4 0.00 0.00 0.00 54 1012.4
20260506191609 18 130 6.4 8.0 0.00 0.00 0.00 54 1012.0
20260506184621 18 30 6.4 8.0 0.00 0.00 0.00 53 1011.4
20260506181612 22 223 11.3 17.7 0.00 0.00 0.00 38 1010.6
20260506181607 20 14 4.8 16.1 0.00 0.00 0.00 45 1011.0
20260506171606 22 216 3.2 27.4 0.00 0.00 0.00 41 1010.5
20260506164606 23 213 24.1 35.4 0.00 0.00 0.00 38 1010.3